timestamp,wind_dir_avg,wind_spd_avg,wind_spd_max_dir,wind_spd_gust,battery_voltage,lat,long
2022-12-23 00:04:00+00:00,289.0,4.03,288.0,4.6,12.41,47.59359,-54.27349
2022-12-23 00:14:00+00:00,290.0,3.85,288.0,4.6,12.41,47.59359,-54.27349
2022-12-23 00:24:00+00:00,302.0,4.09,306.0,4.65,12.41,47.59359,-54.27349
2022-12-23 00:34:00+00:00,286.0,4.62,285.0,4.95,12.41,47.59359,-54.27349
2022-12-23 00:44:00+00:00,291.0,3.72,284.0,4.13,12.41,47.59359,-54.27349
2022-12-23 00:54:00+00:00,301.0,3.72,308.0,4.27,12.41,47.59359,-54.27349
2022-12-23 01:04:00+00:00,284.0,4.02,278.0,4.72,12.41,47.59359,-54.27349
2022-12-23 01:14:00+00:00,290.0,5.03,286.0,7.34,12.41,47.59359,-54.27349
2022-12-23 01:24:00+00:00,297.0,4.51,302.0,5.39,12.41,47.59359,-54.27349
2022-12-23 01:34:00+00:00,302.0,5.23,295.0,6.36,12.41,47.59359,-54.27349
2022-12-23 01:44:00+00:00,303.0,5.11,306.0,5.56,12.41,47.59359,-54.27349
2022-12-23 01:54:00+00:00,300.0,4.3,298.0,4.9,12.41,47.59359,-54.27349
2022-12-23 02:04:00+00:00,295.0,3.26,284.0,4.44,12.41,47.59359,-54.27349
2022-12-23 02:14:00+00:00,302.0,3.45,306.0,4.1,12.41,47.59359,-54.27349
2022-12-23 02:24:00+00:00,305.0,4.24,303.0,5.01,12.41,47.59359,-54.27349
2022-12-23 02:34:00+00:00,294.0,4.44,285.0,5.59,12.41,47.59359,-54.27349
2022-12-23 02:44:00+00:00,297.0,3.13,306.0,3.81,12.41,47.59359,-54.27349
2022-12-23 02:54:00+00:00,309.0,4.28,307.0,5.04,12.41,47.59359,-54.27349
2022-12-23 03:04:00+00:00,305.0,4.48,298.0,5.46,12.41,47.59359,-54.27349
2022-12-23 03:14:00+00:00,322.0,5.89,327.0,6.86,12.41,47.59359,-54.27349
2022-12-23 03:24:00+00:00,325.0,5.41,332.0,7.72,12.41,47.59359,-54.27349
2022-12-23 03:34:00+00:00,319.0,6.1,325.0,7.05,12.41,47.59359,-54.27349
2022-12-23 03:44:00+00:00,315.0,5.89,317.0,6.83,12.41,47.59359,-54.27349
2022-12-23 03:54:00+00:00,316.0,6.5,315.0,7.32,12.41,47.59359,-54.27349
2022-12-23 04:04:00+00:00,321.0,6.39,320.0,7.57,12.41,47.59359,-54.27349
2022-12-23 04:14:00+00:00,317.0,6.83,319.0,7.81,12.33,47.59359,-54.27349
2022-12-23 04:24:00+00:00,317.0,7.1,321.0,7.93,12.33,47.59359,-54.27349
2022-12-23 04:34:00+00:00,322.0,6.45,326.0,7.49,12.33,47.59359,-54.27349
2022-12-23 04:44:00+00:00,319.0,5.91,317.0,7.24,12.33,47.59359,-54.27349
2022-12-23 04:54:00+00:00,311.0,5.37,309.0,6.17,12.33,47.59359,-54.27349
2022-12-23 05:04:00+00:00,320.0,5.13,316.0,5.98,12.33,47.59359,-54.27349
2022-12-23 05:14:00+00:00,320.0,5.33,327.0,6.1,12.33,47.59359,-54.27349
2022-12-23 05:24:00+00:00,314.0,5.74,313.0,6.5,12.33,47.59359,-54.27349
2022-12-23 05:34:00+00:00,325.0,6.56,330.0,7.96,12.33,47.59359,-54.27349
2022-12-23 05:44:00+00:00,309.0,5.0,307.0,5.5,12.33,47.59359,-54.27349
2022-12-23 05:54:00+00:00,310.0,5.02,309.0,5.79,12.33,47.59359,-54.27349
2022-12-23 06:04:00+00:00,311.0,4.6,310.0,5.44,12.33,47.59359,-54.27349
2022-12-23 06:14:00+00:00,312.0,5.0,314.0,5.6,12.33,47.59359,-54.27349
2022-12-23 06:24:00+00:00,318.0,5.05,326.0,6.69,12.33,47.59359,-54.27349
2022-12-23 06:34:00+00:00,325.0,5.17,321.0,5.73,12.33,47.59359,-54.27349
2022-12-23 06:44:00+00:00,328.0,5.48,332.0,6.53,12.33,47.59359,-54.27349
2022-12-23 06:54:00+00:00,330.0,5.3,327.0,6.57,12.33,47.59359,-54.27349
2022-12-23 07:04:00+00:00,348.0,5.85,344.0,6.97,12.33,47.59359,-54.27349
2022-12-23 07:14:01+00:00,341.0,6.47,341.0,7.68,12.33,47.59359,-54.27349
2022-12-23 07:24:01+00:00,347.0,6.73,351.0,7.74,12.33,47.59359,-54.27349
2022-12-23 07:34:01+00:00,337.0,6.05,337.0,6.73,12.33,47.59359,-54.27349
2022-12-23 07:44:01+00:00,343.0,6.89,342.0,7.67,12.33,47.59359,-54.27349
2022-12-23 07:54:01+00:00,352.0,6.53,353.0,7.37,12.33,47.59359,-54.27349
2022-12-23 08:04:01+00:00,347.0,6.91,333.0,7.9,12.33,47.59359,-54.27349
2022-12-23 08:14:00+00:00,353.0,6.1,354.0,7.25,12.25,47.59359,-54.27349
2022-12-23 08:24:00+00:00,348.0,6.16,358.0,8.1,12.25,47.59359,-54.27349
2022-12-23 08:34:00+00:00,351.0,5.02,350.0,5.61,12.25,47.59359,-54.27349
2022-12-23 08:44:00+00:00,2.0,4.74,357.0,5.74,12.25,47.59359,-54.27349
2022-12-23 08:54:00+00:00,2.0,5.5,16.0,5.88,12.25,47.59359,-54.27349
2022-12-23 09:04:00+00:00,340.0,6.08,324.0,7.69,12.25,47.59359,-54.27349
2022-12-23 09:14:00+00:00,338.0,5.89,316.0,7.33,12.25,47.59359,-54.27349
2022-12-23 09:24:00+00:00,308.0,5.52,308.0,6.86,12.25,47.59359,-54.27349
2022-12-23 09:34:00+00:00,319.0,5.03,304.0,6.62,12.25,47.59359,-54.27349
2022-12-23 09:44:00+00:00,323.0,5.9,322.0,6.74,12.25,47.59359,-54.27349
2022-12-23 09:54:00+00:00,323.0,5.61,313.0,6.62,12.25,47.59359,-54.27349
2022-12-23 10:04:00+00:00,320.0,5.69,307.0,7.35,12.25,47.59359,-54.27349
2022-12-23 10:14:00+00:00,315.0,5.23,316.0,5.81,12.25,47.59359,-54.27349
2022-12-23 10:24:00+00:00,318.0,5.08,305.0,6.95,12.25,47.59359,-54.27349
2022-12-23 10:34:00+00:00,303.0,5.63,304.0,6.81,12.25,47.59359,-54.27349
2022-12-23 10:44:00+00:00,313.0,5.42,304.0,6.97,12.25,47.59359,-54.27349
2022-12-23 10:54:00+00:00,320.0,4.94,322.0,5.52,12.25,47.59359,-54.27349
2022-12-23 11:04:00+00:00,324.0,4.91,324.0,5.86,12.25,47.59359,-54.27349
2022-12-23 11:14:00+00:00,321.0,4.53,325.0,5.06,12.25,47.59359,-54.27349
2022-12-23 11:24:00+00:00,326.0,4.69,315.0,5.28,12.25,47.59359,-54.27349
2022-12-23 11:34:00+00:00,339.0,5.19,338.0,6.8,12.25,47.59359,-54.27349
2022-12-23 11:44:00+00:00,339.0,4.97,331.0,5.78,12.25,47.59359,-54.27349
2022-12-23 11:54:00+00:00,329.0,4.13,315.0,5.1,12.25,47.59359,-54.27349
2022-12-23 12:04:00+00:00,348.0,5.4,342.0,6.33,12.25,47.59359,-54.27349
2022-12-23 12:14:00+00:00,355.0,5.02,5.0,6.04,12.25,47.59359,-54.27349
2022-12-23 12:24:00+00:00,336.0,4.53,321.0,5.57,12.25,47.59359,-54.27349
2022-12-23 12:34:00+00:00,345.0,3.79,344.0,4.48,12.25,47.59359,-54.27349
2022-12-23 12:44:00+00:00,353.0,3.43,353.0,4.35,12.25,47.59359,-54.27349
2022-12-23 12:54:00+00:00,8.0,3.38,10.0,4.41,12.25,47.59359,-54.27349
2022-12-23 13:04:00+00:00,355.0,4.37,353.0,4.89,12.25,47.59359,-54.27349
2022-12-23 13:14:00+00:00,1.0,6.49,5.0,7.31,12.89,47.59359,-54.27349
2022-12-23 13:24:00+00:00,353.0,6.23,334.0,7.86,12.89,47.59359,-54.27349
2022-12-23 13:34:00+00:00,7.0,5.61,4.0,6.87,12.89,47.59359,-54.27349
2022-12-23 13:44:00+00:00,30.0,6.04,29.0,7.74,12.89,47.59359,-54.27349
2022-12-23 13:54:00+00:00,34.0,6.18,42.0,7.66,12.89,47.59359,-54.27349
2022-12-23 14:04:00+00:00,26.0,4.5,42.0,7.93,12.89,47.59359,-54.27349
2022-12-23 14:14:01+00:00,37.0,6.46,42.0,7.78,13.21,47.59359,-54.27349
2022-12-23 14:24:01+00:00,23.0,5.3,49.0,7.33,13.21,47.59359,-54.27349
2022-12-23 14:34:01+00:00,37.0,5.65,51.0,7.34,13.21,47.59359,-54.27349
2022-12-23 14:44:01+00:00,15.0,2.93,49.0,4.17,13.21,47.59359,-54.27349
2022-12-23 14:54:01+00:00,0.0,2.83,3.0,3.92,13.21,47.59359,-54.27349
2022-12-23 15:04:01+00:00,18.0,3.68,29.0,4.98,13.21,47.59359,-54.27349
2022-12-23 15:14:01+00:00,5.0,2.87,10.0,3.65,13.68,47.59359,-54.27349
2022-12-23 15:24:01+00:00,49.0,4.09,65.0,6.32,13.68,47.59359,-54.27349
2022-12-23 15:34:01+00:00,0.0,2.92,358.0,3.39,13.68,47.59359,-54.27349
2022-12-23 15:44:01+00:00,18.0,2.09,54.0,3.48,13.68,47.59359,-54.27349
2022-12-23 15:54:01+00:00,5.0,2.25,18.0,2.8,13.68,47.59359,-54.27349
2022-12-23 16:04:01+00:00,350.0,2.91,352.0,3.55,13.68,47.59359,-54.27349
2022-12-23 16:14:01+00:00,307.0,4.36,297.0,6.03,13.68,47.59359,-54.27349
2022-12-23 16:24:01+00:00,332.0,2.54,315.0,3.54,13.68,47.59359,-54.27349
2022-12-23 16:34:01+00:00,26.0,1.52,27.0,2.03,13.68,47.59359,-54.27349
2022-12-23 16:44:01+00:00,333.0,1.64,313.0,2.44,13.68,47.59359,-54.27349
2022-12-23 16:54:01+00:00,341.0,2.16,341.0,2.69,13.68,47.59359,-54.27349
2022-12-23 17:04:01+00:00,332.0,0.8,325.0,1.1,13.68,47.59359,-54.27349
2022-12-23 17:14:00+00:00,359.0,1.25,2.0,1.86,13.68,47.59359,-54.27349
2022-12-23 17:24:00+00:00,4.0,2.25,4.0,2.95,13.68,47.59359,-54.27349
2022-12-23 17:34:00+00:00,23.0,3.23,18.0,3.71,13.68,47.59359,-54.27349
2022-12-23 17:44:00+00:00,33.0,3.94,29.0,4.65,13.68,47.59359,-54.27349
2022-12-23 17:54:00+00:00,37.0,3.64,31.0,4.34,13.68,47.59359,-54.27349
2022-12-23 18:04:00+00:00,50.0,5.09,52.0,5.84,13.68,47.59359,-54.27349
2022-12-23 18:14:01+00:00,39.0,5.64,36.0,6.77,14.4,47.59359,-54.27349
2022-12-23 18:24:01+00:00,52.0,5.99,53.0,7.09,14.4,47.59359,-54.27349
2022-12-23 18:34:01+00:00,45.0,5.39,37.0,6.47,14.4,47.59359,-54.27349
2022-12-23 18:44:01+00:00,53.0,5.69,55.0,7.8,14.4,47.59359,-54.27349
2022-12-23 18:54:01+00:00,53.0,5.68,51.0,6.49,14.4,47.59359,-54.27349
2022-12-23 19:04:01+00:00,46.0,5.04,43.0,5.92,14.4,47.59359,-54.27349
2022-12-23 19:14:00+00:00,48.0,4.93,46.0,6.05,13.44,47.59359,-54.27349
2022-12-23 19:24:00+00:00,53.0,5.51,50.0,6.44,13.44,47.59359,-54.27349
2022-12-23 19:34:00+00:00,45.0,5.35,40.0,6.16,13.44,47.59359,-54.27349
2022-12-23 19:44:00+00:00,42.0,5.27,44.0,6.28,13.44,47.59359,-54.27349
2022-12-23 19:54:00+00:00,45.0,4.31,46.0,5.84,13.44,47.59359,-54.27349
2022-12-23 20:04:00+00:00,43.0,4.6,40.0,5.17,13.44,47.59359,-54.27349
2022-12-23 20:14:00+00:00,70.0,3.63,56.0,4.61,12.65,47.59359,-54.27349
2022-12-23 20:24:00+00:00,63.0,4.22,55.0,4.97,12.65,47.59359,-54.27349
2022-12-23 20:34:00+00:00,38.0,5.57,35.0,6.16,12.65,47.59359,-54.27349
2022-12-23 20:44:00+00:00,83.0,3.95,71.0,5.05,12.65,47.59359,-54.27349
2022-12-23 20:54:00+00:00,88.0,3.06,105.0,3.85,12.65,47.59359,-54.27349
2022-12-23 21:04:00+00:00,103.0,3.67,131.0,5.87,12.65,47.59359,-54.27349
2022-12-23 21:14:00+00:00,86.0,2.83,67.0,3.59,12.49,47.59359,-54.27349
2022-12-23 21:24:00+00:00,124.0,4.83,129.0,5.41,12.49,47.59359,-54.27349
2022-12-23 21:34:00+00:00,81.0,2.67,85.0,3.26,12.49,47.59359,-54.27349
2022-12-23 21:44:00+00:00,101.0,2.02,80.0,2.92,12.49,47.59359,-54.27349
2022-12-23 21:54:00+00:00,147.0,4.63,145.0,5.45,12.49,47.59359,-54.27349
2022-12-23 22:04:00+00:00,142.0,5.54,142.0,6.7,12.49,47.59359,-54.27349
2022-12-23 22:14:00+00:00,140.0,4.51,141.0,5.2,12.41,47.59359,-54.27349
2022-12-23 22:24:00+00:00,133.0,3.79,140.0,4.55,12.41,47.59359,-54.27349
2022-12-23 22:34:00+00:00,137.0,4.49,139.0,5.26,12.41,47.59359,-54.27349
2022-12-23 22:44:00+00:00,140.0,5.29,146.0,6.04,12.41,47.59359,-54.27349
2022-12-23 22:54:00+00:00,140.0,7.09,143.0,8.34,12.41,47.59359,-54.27349
2022-12-23 23:04:00+00:00,142.0,5.66,143.0,6.84,12.41,47.59359,-54.27349
2022-12-23 23:14:00+00:00,145.0,5.46,147.0,6.08,12.41,47.59359,-54.27349
2022-12-23 23:24:00+00:00,133.0,6.22,141.0,7.99,12.41,47.59359,-54.27349
2022-12-23 23:34:00+00:00,126.0,4.49,125.0,5.38,12.41,47.59359,-54.27349
2022-12-23 23:44:00+00:00,119.0,3.77,131.0,5.74,12.41,47.59359,-54.27349
2022-12-23 23:54:00+00:00,109.0,3.39,135.0,4.99,12.41,47.59359,-54.27349
